www.pogodaiklimat.ru

Погода и климат >> Архив погоды >> Россия >> Краснодарский край >> Усть-Лабинск


ПОГОДА в Усть-Лабинске

  • Прогноз погоды в Усть-Лабинске
  • Монитор погоды в Усть-Лабинске

АРХИВ ПОГОДЫ в Усть-Лабинске

Время (UTC), дата Ветер
(напр.,м/с)
 
Видим.   Явления Облачность Т
(С)
Тd
(С)
f
(%)
Тe
(С)
Тes
(С)
Комфортность P
(гПа)
Po
(гПа)
Тmin
(С)
Tmax
(С)
R
(мм)
R24
(мм)
S
(см)
09 19.04 В 8-12
{13}
10 км 10/6 600 м
[Cb cap Ac und]
+7.6 -0.9 55 +3 +3 1019.5 1008.0
12 19.04 В 7-13
{14}
10 км 10/4 600 м
[Cb cap Ac und]
+9.3 +0.8 55 +6 +6 1018.8 1007.3
15 19.04 СВ 6
{13}
10 км 10/6 600 м
[Cb cap Ac und]
+8.5 +0.9 59 +5 +5 1019.2 1007.7 +9.7
18 19.04 СВ 5
{10}
10 км 8/3 600 м
[Cb cap Ac trans]
+6.4 -1.5 57 +3 +3 1020.5 1008.9
21 19.04 СВ 5 10 км 3/0
[Ac trans]
+4.2 -2.2 63 -0 -0 1020.0 1008.3
00 20.04 СВ 3 10 км 3/0
[Ci fib]
+2.4 -2.4 71 -1 -1 1020.0 1008.2
03 20.04 СВ 4 10 км 8/0
[Ac trans Ci fib]
+2.5 -1.7 74 -2 -2 1020.0 1008.2 +2.4
06 20.04 В 6-11
{11}
10 км 6/0
[Ci fib]
+7.5 -0.2 58 +4 +6 1020.4 1008.9 +2.3
09 20.04 В 8-12
{12}
10 км 8/5 600 м
[Sc Ci fib]
+9.9 +1.0 54 +6 +8 1021.0 1009.5
12 20.04 В 8-12
{14}
10 км 9/3 600 м
[Cu hum Ac trans Ci]
+11.0 +0.7 49 +8 +9 1021.1 1009.6
15 20.04 В 6
{12}
10 км 10/0
[Ac trans Ci fib]
+9.7 -0.3 50 +7 +7 1021.3 1009.8 +11.5
18 20.04 СВ 4
{11}
10 км 6/0
[Ac trans Ci fib]
+6.9 +0.4 63 +4 +4 1021.7 1010.1
21 20.04 СВ 5 10 км 5/0
[Ac trans Ci fib]
+5.9 +0.2 67 +2 +2 1021.1 1009.5
00 21.04 СВ 4 10 км 3/0
[Ci fib]
+3.6 -0.1 77 -1 -1 1020.0 1008.3
03 21.04 СВ 5 10 км 3/0
[Ac trans]
+3.4 +0.1 79 -2 -2 1019.4 1007.7 +3.0
06 21.04 В 9-15
{15}
10 км 5/0
[Ac trans Ci fib]
+9.4 -0.2 51 +5 +6 1019.8 1008.3
09 21.04 В 7-13
{16}
10 км 8/0
[Ac trans Cc]
+12.7 -0.4 40 +10 +13 1019.7 1008.4
12 21.04 В 7-10
{16}
10 км 8/3 600 м
[Cb cap Ac trans Ci fib]
+13.2 -0.8 38 +11 +12 1019.3 1008.0
15 21.04 В 6
{13}
10 км 9/3 600 м
[Cb cap Ac trans Ci fib]
+11.5 -0.4 44 +9 +9 1019.7 1008.3 +13.8
18 21.04 СВ 6
{10}
10 км 4/0
[Ac trans]
+9.8 +0.4 52 +7 +7 1020.2 1008.7
21 21.04 СВ 4
{10}
10 км 6/0
[Ac trans Ci fib]
+7.6 +1.3 64 +5 +5 1020.3 1008.7
00 22.04 СВ 5 10 км 8/0
[Ac trans Ci fib]
+6.2 +1.6 72 +2 +2 1020.3 1008.7
03 22.04 СВ 4 10 км 8/0
[Ci fib]
+4.7 +1.0 77 +1 +1 1020.5 1008.8 +4.7
06 22.04 В 7-13
{13}
10 км 8/0
[Ac As Ci fib]
+9.8 +0.8 53 +6 +8 1021.0 1009.5
09 22.04 В 8-12
{15}
10 км 8/4 1000 м
[Cu med, cong Ac As]
+13.7 +2.0 45 +11 +12 1020.7 1009.4
12 22.04 В 9-13
{15}
10 км 10/6 600 м
[Cb cap Ac und]
+14.6 +1.2 40 +12 +13 1020.8 1009.5
15 22.04 В 6
{14}
10 км 10/8 600 м
[Cb cap Ac und]
+13.4 +0.8 42 +11 +11 1021.4 1010.1 +14.8
18 22.04 СВ 3
{10}
10 км 3/0
[Ac trans]
+10.3 +1.4 54 +9 +9 1022.9 1011.4
21 22.04 СВ 3 10 км 4/0
[Ac trans]
+7.6 +0.8 62 +5 +5 1023.7 1012.1
00 23.04 СВ 4 10 км ясно +6.8 +0.9 66 +3 +3 1024.2 1012.6
03 23.04 СВ 4 10 км ясно +5.3 +0.6 72 +1 +2 1025.4 1013.7 +4.8
06 23.04 В 5 10 км 3/0
[Ci fib]
+12.1 +1.5 48 +10 +14 1026.5 1015.1
09 23.04 В 6
{11}
10 км ясно +16.3 -0.9 31 +15 +22 1027.2 1015.9
12 23.04 В 3 10 км ясно +18.2 -0.1 29 +18 +27 1026.8 1015.6
15 23.04 СВ 3 10 км ясно +17.2 -2.3 26 +17 +18 1027.0 1015.7 +18.3
18 23.04 С 2 10 км ясно +9.8 +0.3 52 +9 +9 1028.4 1016.8
21 23.04 В 1 10 км ясно +7.0 -0.1 61 +6 +6 1028.6 1016.9
00 24.04 З 1 10 км ясно +5.2 +1.7 78 +4 +4 1029.0 1017.2
03 24.04 ЮЗ 1 4000 м дымка ясно +6.3 +5.5 95 +5 +5 1029.6 1017.9 +4.5
06 24.04 З 1 10 км 3/0
[Ci fib]
+14.3 +4.6 52 +15 +24 1029.5 1018.1
09 24.04 З 2 10 км 3/0
[Ci fib]
+18.9 +2.7 34 +20 +35 опасность
простуды
1028.4 1017.2
12 24.04 СЗ 2 10 км 4/3 600 м
[Cu hum Ci fib]
+20.3 +2.0 30 +21 +29 комфорт 1027.3 1016.2
15 24.04 З 2 10 км 6/0
[Ci fib]
+19.4 +1.8 31 +20 +21 1026.5 1015.3 +20.3
18 24.04 СЗ 3 10 км 3/0
[Ci fib]
+13.2 +3.7 52 +12 +12 1027.3 1015.9
21 24.04 СЗ 2 10 км 3/0
[Ac trans Ci fib]
+10.4 +3.8 64 +9 +9 1027.7 1016.2
00 25.04 Ю 2 10 км 3/0
[Ci fib]
+7.5 +5.0 84 +5 +5 1028.0 1016.4
03 25.04 Ю 2 10 км 3/0
[Ac trans Ci fib]
+7.2 +6.1 93 +5 +5 1028.2 1016.6 +6.4
06 25.04 ЮЗ 4 10 км ясно +14.1 +8.2 68 +13 +18 1028.0 1016.6
09 25.04 ЮЗ 3 10 км ясно +19.3 +7.2 45 +20 +34 опасность
простуды
1026.9 1015.8
12 25.04 З 2 10 км ясно +22.5 +5.0 32 +23 +34 комфорт 1025.3 1014.3
15 25.04 З 2 10 км ясно +21.8 +3.9 31 +22 +23 комфорт 1024.0 1013.0 +22.9
18 25.04 СЗ 3 10 км ясно +16.1 +4.6 46 +16 +16 1024.9 1013.6
21 25.04 СЗ 2 10 км ясно +11.8 +4.9 63 +11 +11 1024.5 1013.1
00 26.04 ЮЗ 1 10 км ясно +9.3 +5.2 76 +9 +9 1024.3 1012.8
03 26.04 Ю 1 10 км 3/0
[Ac trans]
+7.4 +6.1 91 +6 +7 1023.9 1012.3 +7.4

 

Местоположение метеостанции Усть-Лабинск (Краснодарский край, Россия): широта 45.23 долгота 39.73 высота над уровнем моря 94 м.

В архиве по умолчанию представлена погода в Усть-Лабинске за последнюю неделю. Архивные данные за месяц целиком и за предыдущие месяцы, начиная с января 2011 года, Вы можете получить, выбрав интересующий диапазон дат из раскрывающегося списка и нажав кнопку "Ввод!".


*Определитесь, кто Вы:
робот инопланетянин человек

Внимание! Время в таблицах - всемирное. Для получения местного времени необходимо прибавить поправку, которая равна 3 ч.

Смотрите также архив погоды в соседних городах и на ближайших метеорологических станциях:

Погода в Кореновске (Краснодарский край, Россия) (33 км)
Погода в Белореченске (Краснодарский край, Россия) (55 км)
Погода в Краснодаре (Краснодарский край, Россия) (58 км)
Погода в Дондуковской (Адыгея, Россия) (64 км)
Погода в Кропоткине (Краснодарский край, Россия) (69 км)
Погода в Майкопе (Адыгея, Россия) (73 км)
Погода в Тихорецке (Краснодарский край, Россия) (74 км)
Погода в Тимашевске (Краснодарский край, Россия) (77 км)
Погода в Горячем Ключе (Краснодарский край, Россия) (83 км)
Погода в Шунтуке (Адыгея, Россия) (90 км)

Пояснения к столбцам:

Ветер - указаны скорость ветра в м/с - средняя за 10 мин, порывы в срок и между сроками (в фигурных скобках) и направление, откуда дует ветер: С - северный, СВ - северо-восточный, В - восточный, ЮВ - юго-восточный, Ю - южный, ЮЗ - юго-западный, З - западный, СЗ - северо-западный.
Видимость - горизонтальная дальность видимости в метрах или километрах. При видимости от 1 до 10 км при отсутствии осадков обычно наблюдается дымка, при ухудшении видимости до 1 км и менее - туман. В сухую погоду видимость может ухудшаться дымом, пылью или мглою.
Явления - указаны атмосферные явления, наблюдавшиеся в срок или в последний час перед сроком; фигурными скобками обозначены явления, наблюдавшиеся между сроками (за 1-3 часа до срока); квадратными скобками обозначены град или гололедные отложения с указанием их диаметра в мм.
Облачность - указаны через наклонную черту общая и нижняя облачность в баллах и высота нижней границы облаков в метрах; квадратными скобками обозначены формы облаков: Ci - перистые, Cs - перисто-слоистые, Cc - перисто-кучевые, Ac - высококучевые, As - высокослоистые, Sc - слоисто-кучевые, Ns - слоисто-дождевые, Cu - кучевые, Cb - кучево-дождевые. Подробнее классификацию облаков см. в Атласе облаков (PDF).
T - Температура воздуха - температура, измеренная на высоте 2 м над землей.
Td - Температура точки росы - температура, при понижении до которой содержащийся в воздухе водяной пар достигнет насыщения.
f - Относительная влажность воздуха - влажноcть воздуха, измеренная на высоте 2 м над землей.
Te - Эффективная температура - температура, которую ощущает одетый по сезону человек в тени. Характеристика душности погоды. При расчете учитывается влияние влажности воздуха и скорости ветра на теплоощущения человека.
Tes - Эффективная температура на солнце - температура, которую ощущает человек, с поправкой на солнечный нагрев. Характеристика знойности погоды. Зависит от высоты солнца над горизонтом, облачности и скорости ветра. Ночью, в пасмурную погоду, а также при ветре 12 м/с и более поправка равна нулю.
P - Атмосферное давление - приведенное к уровню моря атмосферное давление.
Po - Атмосферное давление - измеренное на уровне метеостанции атмосферное давление.
Tmin - Минимальная температура - минимум температуры воздуха на высоте 2 м над землей.
Tmax - Максимальная температура - максимум температуры воздуха на высоте 2 м над землей.
R - Количество осадков - Количество выпавших осадков за период времени, мм. При наведении курсора мыши на число - период времени, за который выпало указанное количество осадков.
R24 - Количество осадков - Количество выпавших осадков за 24 часа, мм.
S - Снежный покров - Высота снежного покрова, см. При наведении курсора мыши на число - состояние снежного покрова и степень покрытия местности в баллах.